SL-8 DEB, 39692

Orbit data source: Space-Track

SL-8 DEB, 39692 is space debris in LEO originally from a launch on Tue, 12 Feb 1991 UTC launched from the Plesetsk Missile And Space Complex (PKMTR). Debris objects in space refer to the collection of defunct objects orbiting the Earth. Examples of debris include non-operational satellites, rocket bodies, and fragments generated from explosions, collisions, or faulty payload assembly.

Loading next visibility...
Identifier
39692, 1991-009DF
Orbit
LEO
Country
Flag of CISCIS
Related business
Manufacturer
Unknown
Mission
Spacecraft
Bus & Motor
Unknown
Mass
Unknown
Launch date (UTC)
1991-02-12 (35 years ago)
Launch vehicle
Unknown
Launch site
Plesetsk Missile And Space Complex (PKMTR)
Object type
Payload
Rocket body
Debris
Shape & HBR
Unknown shape, 0.1 m
Radar Cross Section
Medium (>0.1 m² and <1 m²)

Expand to show TLE details & history
Last TLE update: 1 year ago

TLE from 1 year ago
0 SL-8 DEB
1 39692U 91009DF  25134.72774287  .00000525  00000-0  40208-2 0  9995
2 39692  74.0931 259.5369 0097005 202.1652 157.5187 12.39350746500608
Epoch: 2025-05-14T17:27Z
TLE epoch observation values (Epoch: 2025-05-14T17:27:56.983Z)
Latitude
0.00003°
Longitude
124.84151°
Altitude
1,582.541 km
Speed
7.046 km/s
True Right ascension
17h 18m 08s
True Declination
0° 00' 00"
Sunlit
Object was in full shadow at epoch
Visualization orbit readout
Latitude
Unknown
Longitude
Unknown
Altitude
Unknown
Speed
Unknown
Apparent Right ascension
Unknown
Apparent Declination
Unknown
Sunlit
N/A
Visualization observer readout
Local Sidereal Time
02:17:19
Azimuth
Unknown
Elevation
Unknown
Doppler factor
Unknown
Orbital elements
Apogee altitude
1,583.691 km
Perigee altitude
1,430.707 km
Semi-major axis
7,885.336 km
Eccentricity
0.0097
Inclination
74.0931°
RAAN
259.5369°
Arg. of periapsis
202.1652°
True anomaly
157.93904°
Mean anomaly
157.5187°
Eccentric anomaly
157.72934°
Mean motion
3.09965 °/min
Orbital period
116.14 mins
BSTAR
0.0040208
Loading maneuver chart data...
Computing Atmospheric mass density...
Loading historical data...
Loading historical data...
Loading historical data...
Loading historical data...
Loading historical data...
Loading historical data...
Loading historical data...

Documentation

Showing up to 5 results
|